Location: Rounton
(54.4000°N, 1.3500°W)
Time: 21:06:02
(UTC+01:00)

YAOGAN 20A - Pass Details

Date: 06 July 2022
Orbit: 891 x 1288 km, 63.4° (Epoch: 18 August)

Event Time Altitude Azimuth Distance (km) Brightness Sun altitude
Rises 00:20:10 0° 311° (NW) 3,814 8.9 -12.1°
Reaches altitude 10° 00:22:41 10° 309° (NW) 2,912 8.2 -12.2°
Maximum altitude 00:29:38 74° 227° (SW) 1,197 5.3 -12.4°
Enters shadow 00:36:56 11° 144° (SE) 3,069 7.0 -12.6°
